Location: Hodgeman County Ambulance
(38.0844°N, 99.8949°W)
Time: 21:02:00
(UTC+00:00)

N. Korean satellite - Pass Details

Date: 01 October 2021
Orbit: 450 x 495 km, 97.3° (Epoch: 25 October)

Event Time Altitude Azimuth Distance (km) Brightness Sun altitude
Rises 11:42:42 0° 15° (NNE) 2,552 10.5 -11.2°
Reaches altitude 10° 11:44:47 10° 19° (NNE) 1,674 9.6 -10.8°
Maximum altitude 11:48:21 61° 100° (E) 560 7.2 -10.1°
Drops below altitude 10° 11:51:56 10° 182° (S) 1,680 9.3 -9.4°
Sets 11:54:01 0° 185° (S) 2,560 10.1 -9.0°
